Temp
15 15 15 14 14 14 16 15 14 12 12 12 11 10 10 9 9 8 6 5 5 7 6 6 6 6 6 6 6 6 7 7 7 7 7 7 7 7 7 6 6 6 6 6 6 6 7 7 7
15 15 15 14 14 15 14 15 13 13 13 12 11 8 9 9 8 7 6 5 6 6 6 6 6 6 6 7 7 7 7 7 7 7 7 7 7 7 7 6 6 6 6 6 6 6 7 6 6
15 15 14 13 16 16 16 14 13 13 10 9 11 10 9 8 7 7 6 6 6 6 6 6 6 7 7 7 7 7 7 7 7 7 6 6 6 6 6 6 6 6 6 6 6 6 6 6 6
15 15 15 16 17 16 16 13 11 10 9 8 10 10 9 8 7 7 6 6 7 6 6 6 6 7 7 7 7 7 7 7 6 6 6 6 6 6 6 5 5 5 6 6 6 6 6 6 6
15 15 15 16 16 15 14 12 11 10 9 8 8 10 9 9 8 7 7 7 6 7 6 6 7 7 7 7 7 7 6 6 6 6 6 6 6 6 6 6 6 6 6 5 5 5 5 5 5
14 14 16 17 15 14 13 11 12 11 9 9 9 10 9 9 8 7 7 7 6 6 7 6 6 6 6 6 6 6 6 6 6 6 5 5 5 5 5 5 5 5 5 5 5 5 5 5 5
16 16 17 18 16 14 12 11 11 10 8 8 8 9 9 9 8 7 7 6 6 6 6 7 7 7 6 6 6 6 5 5 5 5 5 5 5 5 5 5 5 5 5 4 4 4 4 4 3
15 16 17 19 17 16 13 11 10 10 9 9 8 7 9 9 8 7 7 6 6 6 6 6 6 5 5 6 6 6 6 5 5 5 5 5 5 4 5 5 4 4 4 4 3 3 3 2 1
15 16 17 17 18 14 13 12 10 10 10 8 9 8 9 8 7 7 7 7 6 6 6 6 5 5 5 5 5 5 5 5 5 4 4 4 4 4 4 4 3 3 3 3 3 2 1 0 -0
16 16 17 16 15 15 13 11 12 11 10 9 10 9 8 8 7 7 6 7 6 6 6 5 5 4 4 4 4 4 4 4 4 4 4 4 4 3 3 3 2 2 2 2 1 1 -0 -1 -2
15 16 16 15 14 13 12 10 10 9 8 8 10 9 8 7 7 6 6 7 6 6 6 5 4 4 4 4 4 3 4 4 4 4 3 3 3 3 3 2 2 1 1 0 -0 -1 -2 -2 -2
15 15 14 14 13 12 11 10 10 10 9 9 10 9 8 7 7 6 6 6 6 6 5 5 4 4 4 4 3 3 3 3 3 3 3 3 3 2 2 1 1 0 -0 -1 -2 -3 -3 -3 -3
15 14 13 13 12 12 11 10 10 9 9 10 10 9 8 7 7 7 6 6 6 6 5 4 4 4 4 3 3 3 3 3 3 3 2 2 2 1 1 0 -0 -1 -2 -2 -3 -3 -4 -4 -4
14 13 12 12 12 11 11 10 10 9 10 10 9 9 8 7 7 7 6 7 6 5 5 4 4 4 3 3 2 2 2 2 2 2 2 1 1 0 -0 -1 -2 -2 -3 -4 -4 -4 -5 -5 -5
13 13 12 11 11 11 11 10 11 9 10 10 9 8 8 7 7 7 7 6 6 6 5 4 4 3 3 2 2 2 1 2 2 2 1 1 0 -1 -1 -2 -3 -4 -4 -4 -5 -5 -5 -5 -5
13 13 13 12 11 11 11 12 11 9 10 10 9 8 7 6 7 6 7 5 5 5 4 4 3 3 2 2 1 1 1 1 1 1 0 -0 -1 -2 -3 -3 -4 -4 -5 -5 -5 -6 -6 -6 -6
13 14 14 12 12 11 11 12 11 11 10 9 9 6 5 5 7 7 6 5 5 5 4 3 3 2 1 1 1 1 1 1 1 0 -0 -1 -2 -3 -3 -4 -5 -5 -5 -6 -6 -7 -7 -7 -7
15 15 15 15 12 12 11 12 11 11 10 10 9 7 5 4 5 7 6 5 5 5 4 3 2 1 1 1 0 0 0 0 0 -0 -1 -2 -3 -4 -4 -5 -5 -6 -6 -6 -7 -7 -8 -9 -9
15 15 15 15 15 13 12 11 12 11 11 8 7 6 4 3 4 7 5 5 5 4 3 2 1 1 0 -0 -0 -0 -0 -0 -1 -1 -2 -3 -4 -4 -5 -6 -6 -6 -7 -7 -8 -9 -9 -9 -9
15 14 15 15 13 12 12 12 12 12 11 11 9 6 5 3 4 6 6 5 4 4 3 2 1 0 -0 -1 -1 -1 -0 -1 -1 -2 -3 -4 -4 -5 -6 -6 -7 -7 -8 -8 -9 -9 -10 -10 -10
14 14 14 15 13 12 12 12 12 13 12 11 9 7 6 4 4 5 6 5 4 4 3 1 0 -0 -1 -1 -1 -1 -1 -2 -2 -3 -4 -5 -5 -6 -6 -7 -7 -8 -9 -9 -10 -10 -10 -10 -10
13 14 14 14 13 13 13 13 13 13 13 11 11 8 6 6 4 5 7 6 5 4 2 1 -0 -1 -1 -1 -1 -1 -1 -2 -3 -4 -5 -6 -6 -7 -7 -8 -8 -9 -10 -10 -11 -11 -11 -10 -10
13 13 12 13 12 13 13 13 13 14 13 12 10 9 7 6 4 5 6 5 4 5 2 0 -1 -1 -2 -2 -1 -2 -2 -3 -4 -5 -6 -7 -7 -8 -8 -9 -9 -10 -10 -11 -11 -11 -11 -11 -11
12 12 12 12 12 13 13 13 14 14 12 11 10 8 7 5 4 4 6 5 4 4 2 -0 -1 -2 -2 -2 -2 -2 -3 -3 -4 -6 -6 -7 -8 -8 -9 -9 -10 -11 -11 -11 -11 -12 -12 -11 -12
11 11 12 13 13 14 14 13 14 13 12 11 11 10 8 7 6 6 6 5 4 4 1 -1 -2 -2 -2 -2 -2 -3 -3 -4 -5 -6 -7 -7 -8 -8 -9 -10 -10 -11 -12 -12 -12 -12 -12 -12 -12
11 12 12 12 13 14 13 14 13 12 12 11 11 10 8 7 6 6 5 5 4 3 1 -1 -2 -2 -2 -3 -3 -3 -4 -5 -6 -7 -7 -8 -8 -9 -9 -10 -11 -12 -12 -12 -12 -12 -12 -13 -13
12 13 12 12 12 12 13 14 12 11 10 10 10 9 8 7 6 5 5 4 3 2 -0 -1 -2 -3 -3 -3 -3 -4 -5 -6 -7 -7 -8 -8 -9 -9 -10 -11 -11 -12 -12 -12 -13 -13 -13 -13 -14
11 12 11 11 11 11 13 13 11 9 8 7 8 8 7 7 6 5 4 3 3 1 -1 -2 -3 -3 -3 -4 -4 -4 -5 -6 -7 -8 -8 -9 -9 -10 -10 -11 -12 -12 -12 -12 -13 -13 -13 -14 -14
11 11 11 11 11 11 12 12 11 10 9 8 8 7 7 6 5 4 3 3 2 -0 -1 -2 -3 -3 -4 -4 -4 -5 -6 -7 -8 -8 -8 -9 -9 -10 -10 -11 -12 -12 -12 -13 -13 -13 -14 -14 -14
11 11 11 11 11 11 11 11 10 9 9 7 8 6 6 5 4 4 3 2 1 -1 -2 -2 -3 -4 -4 -4 -5 -6 -7 -8 -8 -9 -9 -9 -10 -10 -11 -11 -12 -12 -12 -13 -13 -13 -14 -14 -15
Height
3180 3179 3180 3179 3185 3181 3176 3178 3179 3180 3178 3180 3180 3181 3181 3180 3180 3182 3176 3176 3175 3175 3176 3174 3174 3172 3170 3168 3166 3163 3160 3157 3155 3152 3149 3147 3145 3142 3140 3138 3135 3132 3130 3127 3125 3123 3121 3120 3119
3181 3179 3180 3182 3184 3182 3179 3180 3179 3178 3177 3176 3178 3177 3178 3178 3176 3175 3175 3175 3174 3175 3175 3174 3172 3170 3169 3167 3164 3161 3158 3155 3152 3149 3147 3145 3142 3139 3136 3134 3131 3128 3125 3122 3120 3118 3117 3115 3112
3181 3179 3181 3181 3176 3181 3178 3178 3176 3177 3176 3176 3176 3177 3176 3175 3173 3174 3174 3174 3174 3174 3174 3173 3171 3169 3167 3165 3162 3159 3156 3153 3151 3148 3145 3142 3138 3135 3131 3128 3125 3123 3120 3117 3115 3113 3110 3108 3106
3180 3181 3179 3180 3174 3176 3177 3177 3176 3177 3180 3177 3173 3175 3175 3174 3173 3174 3174 3173 3173 3174 3173 3171 3170 3169 3167 3164 3161 3158 3155 3152 3149 3146 3142 3138 3134 3131 3127 3124 3120 3117 3114 3111 3109 3106 3104 3101 3099
3179 3179 3179 3178 3176 3177 3176 3177 3179 3177 3179 3177 3174 3172 3173 3172 3172 3173 3173 3173 3173 3172 3172 3170 3169 3168 3165 3163 3160 3157 3154 3150 3147 3143 3139 3135 3131 3127 3124 3120 3116 3112 3109 3106 3103 3099 3097 3093 3090
3177 3181 3181 3174 3179 3177 3178 3178 3181 3180 3178 3175 3173 3172 3172 3171 3172 3173 3173 3172 3172 3171 3170 3169 3168 3167 3164 3162 3159 3155 3152 3148 3145 3140 3137 3132 3128 3123 3119 3116 3111 3108 3104 3100 3096 3093 3089 3084 3080
3177 3178 3177 3172 3174 3175 3175 3177 3180 3179 3176 3176 3172 3170 3171 3170 3171 3172 3172 3171 3171 3169 3167 3166 3166 3164 3163 3160 3157 3154 3150 3147 3142 3139 3134 3129 3124 3119 3114 3111 3107 3102 3098 3094 3089 3085 3081 3076 3071
3178 3179 3173 3171 3167 3171 3171 3174 3176 3176 3177 3173 3172 3170 3170 3169 3170 3170 3170 3170 3168 3167 3166 3165 3163 3161 3158 3158 3155 3152 3148 3144 3140 3135 3129 3124 3119 3114 3109 3105 3100 3096 3092 3086 3082 3077 3072 3067 3063
3182 3180 3174 3171 3168 3165 3167 3171 3173 3172 3173 3172 3171 3168 3169 3168 3168 3168 3168 3167 3166 3165 3164 3162 3161 3159 3157 3154 3151 3148 3144 3140 3136 3131 3124 3120 3116 3111 3105 3100 3094 3089 3084 3079 3074 3069 3064 3060 3056
3181 3179 3177 3175 3170 3166 3167 3169 3169 3171 3170 3170 3167 3167 3167 3167 3167 3166 3165 3164 3163 3163 3162 3161 3159 3157 3155 3152 3149 3144 3141 3135 3131 3127 3120 3116 3111 3106 3101 3096 3090 3084 3079 3073 3068 3062 3057 3052 3049
3179 3178 3176 3173 3172 3167 3168 3170 3169 3170 3169 3167 3167 3167 3166 3166 3165 3165 3162 3161 3161 3161 3160 3159 3157 3155 3152 3150 3146 3142 3137 3131 3126 3123 3117 3112 3107 3101 3095 3090 3084 3078 3072 3067 3061 3056 3050 3046 3041
3177 3176 3175 3173 3171 3170 3170 3169 3171 3172 3169 3165 3166 3165 3164 3164 3164 3163 3161 3159 3159 3159 3158 3156 3154 3152 3150 3146 3142 3138 3132 3128 3123 3118 3113 3108 3102 3096 3089 3082 3076 3070 3064 3059 3054 3049 3045 3040 3036
3175 3174 3173 3172 3171 3171 3170 3169 3171 3169 3165 3165 3165 3163 3162 3162 3162 3160 3159 3157 3157 3157 3155 3153 3151 3149 3146 3143 3139 3134 3129 3124 3119 3113 3109 3102 3096 3089 3082 3075 3069 3063 3057 3051 3048 3044 3039 3035 3031
3172 3172 3171 3170 3170 3168 3169 3169 3167 3165 3163 3163 3162 3161 3160 3160 3159 3158 3157 3155 3154 3154 3153 3151 3148 3146 3142 3139 3134 3131 3125 3120 3114 3108 3103 3096 3089 3081 3074 3069 3063 3057 3051 3047 3042 3038 3034 3030 3025
3170 3171 3169 3168 3166 3166 3168 3167 3164 3161 3161 3160 3160 3159 3158 3157 3156 3156 3153 3153 3151 3150 3150 3147 3146 3142 3139 3135 3131 3126 3121 3116 3110 3103 3095 3088 3082 3075 3069 3064 3058 3052 3047 3042 3037 3033 3030 3025 3021
3169 3170 3168 3165 3164 3165 3167 3164 3161 3158 3159 3158 3157 3156 3155 3153 3152 3151 3150 3150 3148 3147 3146 3143 3140 3138 3135 3131 3127 3122 3117 3111 3103 3097 3090 3083 3077 3071 3065 3059 3053 3048 3043 3038 3033 3028 3025 3020 3016
3167 3164 3164 3162 3160 3161 3164 3164 3158 3157 3156 3155 3155 3153 3152 3150 3148 3146 3148 3146 3144 3144 3142 3141 3137 3134 3130 3127 3122 3115 3108 3101 3094 3088 3083 3077 3072 3066 3061 3055 3049 3044 3039 3034 3029 3024 3018 3014 3011
3162 3159 3161 3159 3156 3157 3159 3162 3158 3155 3153 3152 3151 3150 3148 3146 3145 3143 3144 3141 3139 3140 3137 3135 3133 3130 3127 3123 3118 3112 3105 3098 3090 3083 3078 3073 3068 3062 3057 3051 3046 3041 3035 3029 3025 3020 3015 3010 3006
3159 3160 3159 3158 3152 3154 3155 3158 3159 3151 3149 3147 3147 3147 3145 3143 3139 3139 3141 3138 3135 3135 3133 3130 3129 3127 3123 3118 3114 3108 3102 3094 3088 3080 3074 3069 3064 3059 3053 3047 3042 3035 3030 3024 3020 3017 3011 3007 3003
3157 3158 3157 3157 3154 3154 3155 3154 3152 3153 3143 3144 3144 3145 3144 3143 3136 3134 3135 3134 3132 3129 3128 3125 3124 3123 3119 3114 3110 3104 3097 3090 3084 3077 3070 3064 3060 3054 3048 3042 3037 3031 3026 3022 3017 3013 3009 3004 2998
3156 3157 3156 3156 3152 3151 3151 3149 3145 3145 3143 3139 3141 3143 3144 3140 3135 3132 3131 3130 3128 3125 3124 3122 3120 3118 3115 3111 3106 3100 3093 3087 3081 3075 3069 3062 3057 3052 3045 3039 3034 3028 3023 3018 3013 3009 3005 3001 2997
3154 3154 3152 3153 3152 3150 3150 3143 3143 3140 3137 3133 3136 3138 3142 3138 3135 3130 3127 3126 3123 3119 3121 3118 3116 3114 3111 3108 3102 3096 3090 3084 3077 3071 3065 3060 3053 3047 3041 3035 3030 3025 3020 3014 3010 3006 3000 2996 2992
3152 3149 3151 3151 3150 3148 3146 3142 3136 3135 3135 3132 3134 3135 3138 3137 3133 3127 3124 3122 3119 3115 3116 3115 3113 3111 3108 3103 3098 3093 3086 3080 3073 3068 3062 3057 3050 3043 3037 3031 3026 3021 3016 3011 3007 3002 2997 2992 2987
3148 3148 3148 3148 3147 3144 3138 3137 3133 3131 3132 3135 3134 3133 3133 3134 3130 3125 3122 3119 3115 3113 3113 3111 3109 3107 3104 3100 3094 3088 3081 3075 3070 3064 3059 3053 3047 3040 3034 3029 3023 3017 3013 3007 3003 2998 2992 2987 2982
3147 3148 3146 3142 3140 3134 3131 3133 3131 3128 3128 3128 3129 3128 3128 3128 3126 3123 3119 3117 3113 3110 3110 3107 3106 3105 3101 3096 3090 3084 3078 3071 3065 3060 3055 3049 3043 3037 3031 3025 3020 3014 3008 3003 2999 2993 2988 2982 2976
3143 3145 3144 3139 3137 3132 3132 3127 3127 3125 3122 3124 3123 3122 3124 3125 3124 3120 3117 3113 3110 3109 3107 3104 3103 3101 3097 3092 3086 3080 3074 3068 3062 3057 3052 3047 3040 3033 3028 3022 3016 3011 3005 3000 2995 2989 2983 2977 2971
3142 3140 3142 3139 3138 3134 3129 3126 3122 3119 3121 3121 3121 3122 3121 3121 3120 3116 3113 3110 3107 3105 3104 3102 3100 3098 3094 3089 3083 3076 3070 3065 3060 3055 3049 3043 3036 3030 3024 3018 3013 3008 3002 2996 2991 2985 2978 2972 2967
3138 3140 3140 3137 3133 3129 3123 3122 3121 3121 3121 3121 3120 3120 3119 3117 3115 3111 3109 3106 3103 3103 3102 3100 3098 3095 3091 3086 3080 3073 3067 3062 3057 3052 3047 3040 3033 3028 3022 3016 3010 3004 2999 2993 2987 2981 2974 2969 2963
3136 3135 3136 3136 3134 3130 3126 3124 3121 3121 3119 3119 3118 3117 3115 3113 3110 3108 3106 3103 3101 3101 3100 3098 3095 3092 3088 3083 3077 3071 3065 3060 3054 3049 3043 3037 3031 3025 3019 3012 3007 3001 2996 2990 2983 2977 2971 2965 2960
3133 3132 3133 3131 3129 3128 3126 3122 3121 3119 3117 3113 3112 3113 3112 3110 3108 3106 3103 3101 3101 3099 3097 3095 3093 3089 3085 3079 3073 3067 3062 3058 3052 3046 3040 3034 3028 3022 3016 3010 3005 2999 2993 2987 2980 2974 2968 2962 2956
Wind_Speed
9 7 7 8 4 2 10 8 5 4 0 5 6 5 6 8 10 10 8 9 9 5 1 3 7 11 16 19 21 21 22 23 24 25 25 25 26 26 26 27 27 28 28 27 28 28 28 28 27
9 5 7 4 13 1 6 3 11 10 7 4 6 7 8 9 11 10 10 10 8 5 2 5 10 14 17 19 20 22 23 25 26 27 26 27 28 28 29 29 28 27 28 29 29 29 30 31 31
7 5 10 12 13 5 7 5 8 7 3 1 6 7 9 9 7 6 9 8 7 4 2 7 11 15 16 19 21 23 24 25 26 26 28 29 30 31 31 30 29 28 27 28 30 31 32 33 34
10 7 10 3 3 7 5 5 7 10 7 3 11 5 7 8 6 8 8 7 6 3 3 8 10 13 16 20 23 24 24 25 27 28 30 31 32 33 32 31 31 31 30 31 31 33 34 36 37
14 6 15 17 10 6 7 10 10 7 5 4 3 11 8 8 6 8 7 7 6 5 4 6 8 12 17 21 22 24 25 27 29 30 32 32 33 33 33 33 32 32 32 32 33 35 37 39 40
9 11 24 9 7 6 7 7 4 4 6 8 12 10 7 7 7 9 9 8 7 6 7 1 6 12 18 22 24 26 27 28 30 32 33 34 34 34 33 32 33 33 34 34 35 37 38 40 43
8 10 22 9 15 10 9 8 7 7 7 3 9 7 7 7 8 10 10 9 8 7 5 6 7 12 15 21 25 27 28 30 31 31 32 33 34 34 34 33 33 34 36 37 38 40 41 42 44
14 21 22 20 10 6 13 8 10 4 9 12 6 11 9 8 10 10 11 10 10 8 6 6 12 18 23 23 25 27 30 31 32 34 35 36 36 36 36 37 37 37 37 39 40 42 43 44 44
13 20 24 19 5 14 15 12 10 15 12 5 7 14 8 8 10 11 12 12 9 8 6 10 14 18 22 27 29 31 33 35 35 37 38 39 37 37 37 38 39 40 40 41 42 42 42 41 39
13 15 11 7 3 7 7 8 11 10 10 8 11 12 9 9 10 11 14 12 9 9 8 10 15 19 23 26 30 33 34 37 39 39 40 39 39 38 38 37 37 38 38 39 39 40 40 39 37
13 14 12 6 1 5 7 10 7 7 7 13 12 10 8 9 11 12 14 13 11 10 10 11 15 20 24 27 30 34 36 38 41 41 40 40 40 39 38 38 38 38 37 36 36 36 35 34 33
13 11 7 5 1 8 8 11 7 7 6 21 15 11 8 9 11 15 15 15 13 12 13 15 18 21 25 29 32 35 38 39 42 43 41 41 40 39 39 39 39 38 37 36 33 32 31 31 31
11 9 5 4 7 8 14 9 9 14 20 16 13 10 8 10 13 15 16 17 15 16 17 18 21 24 27 30 33 36 38 40 42 43 42 41 41 40 40 40 38 37 36 35 32 30 29 28 28
6 9 6 6 9 15 11 9 14 17 18 16 14 12 9 11 14 15 17 19 19 19 19 20 23 27 30 32 35 37 38 40 42 44 43 42 42 42 41 39 37 35 34 32 31 30 29 28 28
10 8 8 9 16 12 8 14 16 20 20 18 16 14 13 14 16 16 22 19 22 23 22 24 26 28 31 34 36 38 38 41 43 44 45 43 43 42 40 38 35 33 32 31 31 30 28 27 26
8 9 13 16 10 12 10 17 21 25 20 20 18 17 17 19 20 21 20 21 24 25 24 26 29 30 32 34 36 38 39 41 44 44 44 43 42 39 37 35 32 32 32 31 31 31 28 27 26
13 20 19 14 15 12 11 6 16 22 22 20 20 19 21 23 24 25 20 24 27 26 27 28 30 31 33 34 37 40 43 47 47 47 44 43 41 38 35 33 32 31 31 32 31 30 30 28 26
18 21 14 21 20 16 13 13 14 23 29 27 24 21 24 26 27 26 24 28 30 28 29 30 30 31 33 34 37 38 42 44 46 46 44 41 39 36 33 31 31 31 31 31 31 29 27 28 27
27 16 13 17 16 12 13 16 19 27 28 26 22 20 25 27 32 29 26 31 31 30 30 31 29 30 32 34 36 39 42 44 43 43 43 40 36 33 31 30 30 31 31 31 29 28 28 28 28
18 16 18 13 12 10 13 20 24 22 34 33 25 23 26 27 36 34 32 29 29 32 30 30 30 28 31 34 36 39 43 44 42 41 41 39 35 33 31 31 31 30 30 29 28 27 27 28 32
15 18 18 16 6 10 21 23 26 24 29 31 26 21 24 30 37 38 35 29 28 31 30 30 28 29 30 33 36 39 42 40 39 38 36 35 33 31 31 31 30 30 30 27 27 28 28 30 32
17 14 17 16 15 20 12 22 25 23 25 29 27 20 23 31 36 38 32 30 31 32 26 27 27 28 30 32 36 41 42 40 38 36 33 31 31 31 31 30 30 30 28 27 27 29 31 33 34
18 16 10 13 19 21 23 22 22 17 9 21 21 20 19 29 32 32 31 32 32 32 24 24 24 26 29 33 38 40 40 38 36 33 31 29 30 31 31 30 30 30 29 27 28 29 31 34 34
13 12 14 17 20 20 28 29 28 5 7 10 12 16 19 22 27 29 30 32 32 29 22 21 23 25 29 34 39 40 39 36 34 30 28 28 29 29 30 29 30 30 30 29 28 30 32 33 31
13 12 15 14 13 13 14 7 11 11 16 17 13 16 16 19 22 24 28 29 30 28 22 21 22 24 29 35 39 39 37 35 32 29 28 29 29 30 30 30 29 29 30 30 29 31 33 32 31
10 13 16 16 12 19 16 9 13 15 22 17 15 15 13 13 17 23 26 27 28 25 19 20 22 25 30 35 39 38 36 33 30 29 29 30 30 31 30 30 29 29 30 29 30 31 33 29 30
10 17 15 16 20 20 25 28 15 17 13 13 13 11 9 12 19 21 24 24 27 22 18 19 22 26 31 36 39 37 35 32 29 28 28 29 30 30 31 30 29 28 29 29 30 32 30 28 29
15 15 8 11 9 13 17 25 4 5 5 7 9 8 9 18 20 21 22 24 24 19 17 18 22 27 32 37 38 36 33 29 27 27 28 29 30 31 31 31 29 27 28 29 32 31 28 28 27
13 12 15 18 18 12 12 16 4 2 9 12 11 10 14 20 19 20 22 23 21 17 17 18 23 28 33 37 36 33 29 26 25 27 28 29 30 32 32 31 28 27 28 31 31 29 29 28 26
11 20 20 19 17 21 22 26 14 10 12 14 16 11 16 19 18 20 22 20 18 18 18 19 23 29 34 36 32 29 26 25 25 26 28 29 31 32 32 29 25 28 31 32 30 30 30 28 24
Wind_Direction
132 149 173 217 293 313 32 80 83 110 285 283 292 288 285 256 273 255 234 211 252 291 76 359 346 342 342 337 333 333 335 335 334 333 332 330 325 322 320 316 314 311 308 304 301 299 297 292 289
136 174 214 189 257 199 32 63 113 183 285 294 341 348 328 300 303 251 218 217 248 259 312 343 339 341 339 337 336 338 339 340 338 332 328 325 321 318 315 313 311 309 306 304 302 299 297 295 292
145 196 227 248 290 50 99 116 197 265 90 90 325 312 301 313 303 216 195 226 245 233 296 332 342 342 341 343 343 345 342 337 333 329 327 325 323 321 319 318 315 311 307 303 301 299 296 294 291
174 218 282 285 353 56 73 155 183 129 135 160 296 344 320 324 281 219 226 226 224 244 323 333 348 348 351 351 348 343 338 335 333 330 328 326 323 320 319 318 317 315 312 308 303 300 297 295 292
209 218 251 326 26 69 103 142 143 139 146 158 300 319 326 314 270 232 226 216 231 264 299 334 353 358 358 355 348 343 340 338 333 329 327 325 324 321 319 319 318 315 312 308 306 303 301 298 295
264 286 287 296 215 120 134 144 144 181 178 203 250 293 303 289 254 236 227 227 241 272 280 319 1 2 354 348 348 345 342 338 333 331 330 328 325 323 322 323 320 317 314 311 307 304 300 296 294
291 298 291 284 161 167 168 167 180 197 195 150 270 297 308 267 242 236 234 234 249 264 276 301 311 339 344 346 347 345 343 340 337 333 330 329 327 326 325 324 320 317 315 312 311 307 304 301 298
309 299 296 292 176 189 208 162 188 178 167 245 248 291 295 272 240 237 239 243 259 259 267 311 334 337 337 337 336 337 338 339 338 336 335 334 332 329 327 324 322 319 318 316 314 312 310 308 306
265 279 290 360 307 165 209 190 178 199 243 254 269 280 320 259 242 241 247 255 256 260 280 312 327 331 335 336 337 337 338 339 341 339 338 335 332 329 326 323 323 322 322 320 316 312 310 310 309
267 278 330 357 344 219 205 191 251 236 246 245 280 302 299 259 244 251 259 263 257 263 281 312 321 326 328 332 334 334 335 338 340 342 339 334 330 327 325 325 323 321 321 317 315 316 315 313 314
258 277 327 351 190 236 217 180 242 177 230 260 312 305 289 261 254 258 261 263 259 263 284 304 310 319 323 327 329 332 334 337 338 341 336 332 329 326 325 325 324 323 321 322 322 321 320 319 318
266 275 291 284 199 156 167 211 195 210 260 254 302 304 292 270 261 255 260 263 262 267 284 297 309 313 318 323 329 332 333 335 337 338 335 332 329 327 327 327 327 327 327 327 325 325 324 324 320
270 261 250 270 176 171 197 222 197 202 245 269 295 301 291 273 262 263 263 264 265 272 286 297 305 309 315 322 328 330 331 334 337 336 334 332 330 330 330 331 331 330 330 328 328 329 327 323 320
286 242 237 202 191 196 225 200 225 232 266 278 288 292 283 267 265 270 267 270 271 277 286 294 300 308 316 321 324 329 331 334 337 334 336 333 333 333 333 333 332 332 330 329 330 332 327 327 324
246 228 219 209 220 240 201 227 251 244 272 280 283 279 269 252 265 265 270 273 275 283 289 293 298 306 314 318 324 327 332 334 335 336 337 335 335 335 334 333 332 332 330 331 331 331 329 326 323
220 235 243 233 233 236 228 253 247 237 268 276 276 266 250 250 263 262 285 270 276 286 286 292 300 307 312 317 323 326 330 335 336 338 337 337 336 336 334 332 334 332 331 331 332 329 330 330 328
242 244 246 193 220 226 250 234 215 255 259 273 273 251 248 250 260 275 273 270 277 284 285 290 297 304 311 319 324 329 334 337 338 337 338 338 336 335 333 334 333 332 331 331 332 333 334 336 336
248 244 256 253 224 209 246 240 256 268 279 281 281 257 251 258 265 277 268 268 277 280 283 290 297 304 310 319 326 332 336 337 337 335 336 336 334 334 333 333 332 331 331 333 333 337 342 340 341
255 283 287 294 237 224 248 244 251 263 265 258 254 247 241 258 275 285 278 279 278 280 280 287 294 304 312 320 326 332 336 336 335 334 334 334 334 332 331 332 332 333 335 335 336 340 341 340 338
253 277 273 266 255 217 251 264 269 263 262 268 263 233 237 247 269 292 295 289 282 278 279 284 295 305 314 320 327 333 336 333 335 335 333 333 333 332 333 334 335 335 336 335 336 338 342 343 338
254 264 269 269 226 265 281 268 278 280 252 250 254 232 239 247 264 285 295 295 291 283 278 285 295 305 315 321 328 334 334 333 334 333 331 330 330 330 332 335 336 337 337 335 333 334 337 339 337
259 270 260 267 274 275 308 264 280 292 242 241 253 244 224 244 256 278 295 301 297 288 283 284 295 308 315 322 329 333 332 333 333 332 331 330 329 331 335 336 338 338 336 331 331 334 335 335 333
266 260 271 264 275 283 275 271 269 277 236 235 245 260 228 239 257 278 293 296 296 297 287 287 298 309 315 324 331 332 332 333 332 332 331 330 331 333 336 337 338 336 336 329 328 332 334 333 330
250 276 276 270 270 266 270 264 274 290 194 176 217 236 254 234 245 268 289 291 290 297 297 292 302 310 319 326 329 331 332 333 332 332 331 330 332 334 338 337 335 337 336 327 329 330 332 329 327
249 256 270 264 235 251 279 278 272 273 249 238 249 260 253 247 256 280 289 287 291 296 297 297 303 314 321 326 329 331 333 333 333 333 332 332 334 338 339 336 336 336 334 330 331 330 330 328 329
234 242 261 290 296 305 308 268 320 255 253 256 265 259 261 250 285 287 287 289 289 294 296 297 309 316 322 327 330 332 334 334 334 334 334 335 340 338 338 339 336 335 332 335 331 332 330 329 333
255 262 261 285 281 277 274 284 252 257 240 260 255 249 257 287 305 295 293 288 291 293 296 301 309 317 324 329 331 334 335 337 336 336 336 339 340 339 340 339 337 335 335 335 334 332 331 334 335
260 257 285 244 271 276 292 306 15 224 235 214 234 265 287 314 308 297 291 288 294 297 296 301 310 318 325 330 333 335 338 339 337 337 338 341 342 342 342 341 338 337 338 338 335 335 338 337 335
249 255 252 268 278 301 304 299 359 170 254 274 271 271 311 312 300 294 292 294 296 295 297 303 310 320 328 332 335 338 339 338 338 339 341 344 344 345 344 342 343 342 343 341 339 342 342 340 336
262 274 284 287 287 278 292 299 309 277 245 251 282 263 303 301 299 300 296 299 298 296 298 304 315 324 329 334 336 339 339 339 340 342 346 347 348 346 346 346 348 347 346 343 345 347 346 342 340